TABS, Texas Automated Buoy System, NOAA HAZMAT, Ocean Observatory, Real Time Oceanographic Data Supporting Oil Spill Prevention and Response

Texas General Land Office  Texas General
 Land Office
 Oil Spill Prevention
 & Response
Texas Automated Buoy System
Real Time Ocean Observations
Supporting Oil Spill Prevention and Response since 1995
Geochemical and Environmental Research Group

TABS Buoy J -- Texas Automated Buoy System

TABS Buoy J Conditions at 07/23/2016 17:30 UTC (07/23/2016 12:30 CDT)
26° 11.4840'N   97° 3.0420'W
AA3900 DCS - sensor depth 2m
Anemometer height: 4m
Water Depth: 68 feet (20 meters)
Speed: 14.15 cm/s (0.28 kts) Direction: 138 °T (SE) Water Temp: 28°C (83 °F)
System Voltage: 13.0 V Signal Strength: -8.4 dB Ping Count: 147
Wind: 3.1 m/s (6.0 kts)
          From 108°T (ESE)
Air Temp: 28 °C (83 °F)
Relative Humidity:  N/A
Pressure: 1015.2 mb (29.98 inHg)

  


IMPORTANT: Notice to Mariners


Today's System Data (download)

   Date   |  Time  | VBatt |  SigStr| Comp | Nping| Tx | Ty | ADCP | ADCP | VBatt |
          |  (UTC) | (Oper)|   (dB) | (°M) |      |    |    | Volt | Curr |(sleep)|
==========+========+=======+========+======+======+====+====+======+======+=======+
07/23/2016 00:00:00    13.3   -3.35   173.6    127    0    -3    1.0    3.0   -0.1
07/23/2016 00:30:00    13.3   -3.00   170.6    130   -1    -3    1.0    4.0   -0.1
07/23/2016 01:00:00    13.1   -2.75   173.3    130    0    -3    1.0    3.0   -0.1
07/23/2016 01:30:00    12.8   -2.43   174.6    132    0    -3    1.0    3.0   -0.1
07/23/2016 02:00:00    12.7   -2.76   181.6    137    0    -3    1.0    3.0   -0.1
07/23/2016 02:30:00    12.7   -2.81   179.7    129    0    -3    1.0    3.0   -0.1
07/23/2016 03:00:00    12.7   -2.73   183.6    115    0    -3    1.0    4.0   -0.1
07/23/2016 03:30:00    12.7   -2.92   192.8    137    1    -4    1.0    4.0   -0.1
07/23/2016 04:00:00    12.7   -3.07   203.2    130    2    -4    1.0    4.0   -0.1
07/23/2016 04:30:00    12.7   -3.04   205.7    116    2    -4    1.0    4.0   -0.1
07/23/2016 05:00:00    12.7   -3.23   209.6    143    2    -3    1.0    4.0   -0.1
07/23/2016 05:30:00    12.7   -3.33   211.0    141    2    -3    1.0    4.0   -0.1
07/23/2016 06:00:00    12.6   -3.29   216.0    137    2    -3    1.0    3.0   -0.1
07/23/2016 06:30:00    12.6   -3.26   219.5    140    2    -2    1.0    3.0   -0.1
07/23/2016 07:00:00    12.6   -3.36   233.4    115    3    -2    1.0    3.0   -0.1
07/23/2016 07:30:00    12.6   -3.25   232.8    138    3    -2    1.0    4.0   -0.1
07/23/2016 08:00:00    12.6   -3.26   245.6    138    3    -1    1.0    4.0   -0.1
07/23/2016 08:30:00    12.6   -2.84   258.6    131    4     0    1.0    4.0   -0.1
07/23/2016 09:00:00    12.6   -2.62   256.1    139    4     0    1.0    4.0   -0.1
07/23/2016 09:30:00    12.6   -2.82   263.1    135    3     0    1.0    3.0   -0.1
07/23/2016 10:00:00    12.6   -2.77   253.8    132    2     0    1.0    3.0   -0.1
07/23/2016 10:30:00    12.6   -3.06   256.9    134    2     0    1.0    2.0   -0.1
07/23/2016 11:00:00    12.6   -3.21   257.1    133    2     0    1.0    2.0   -0.1
07/23/2016 11:30:00    12.6   -2.89   246.2    138    1    -1    1.0    2.0   -0.1
07/23/2016 12:00:00    12.6   -2.89   256.3    141    1     0    1.0    2.0   -0.1
07/23/2016 12:30:00    12.9   -2.42   277.2    124    2     0    1.0    2.0   -0.1
07/23/2016 13:00:00    13.1   -2.52     2.1    126    0     1    1.0    1.0   -0.1
07/23/2016 13:30:00    13.2   -3.03    10.0    135   -1     1    1.0    2.0   -0.1
07/23/2016 14:00:00    13.2   -3.40    14.8    128   -1     2    1.0    2.0   -0.1
07/23/2016 14:30:00    13.2   -3.70    23.3    126   -1     1    1.0    2.0   -0.1
07/23/2016 15:00:00    13.2   -4.14    48.0    134   -1     0    1.0    1.0   -0.1
07/23/2016 15:30:00    13.2   -4.64    39.1    141   -1     1    1.0    2.0   -0.1
07/23/2016 16:00:00    13.1   -3.24    74.5    138   -2     0    1.0    2.0   -0.1
07/23/2016 16:30:00    13.1   -5.91   125.5    127   -1    -1    1.0    2.0   -0.1
07/23/2016 17:00:00    13.1   -6.79   127.1    130   -1    -1    1.0    2.0   -0.1
07/23/2016 17:30:00    13.0   -8.37   153.8    147   -1    -2    1.0    2.0   -0.1